Regional Weather Roundup
Issued by NWS Kansas City/Pleasant Hill, MO

Home | Current Version | Previous Version | Text Only | Print | Product List | Glossary On
Versions: 1 2 3 4 5 6 7 8 9 10 11 12 13 14 15 16 17 18 19 20 21 22 23 24 25 26 27 28 29 30 31 32 33 34 35 36 37 38 39 40 41 42 43 44 45 46 47 48 49 50
167
ASUS43 KEAX 221010
RWREAX

WEATHER ROUNDUP FOR EASTERN KANSAS AND NORTHWEST MISSOURI
NATIONAL WEATHER SERVICE KANSAS CITY/PLEASANT HILL MO
400 AM CST WED NOV 22 2017

KSZ040-057-103>105-MOZ028-029-037-043-221100-
...KANSAS CITY METROPOLITAN AREA...

CITY           SKY/WX    TMP DP  RH WIND       PRES   REMARKS
K.C. INTL      PTCLDY    21  13  71 NW5       30.41S WCI  15
K.C. DOWNTOWN  CLOUDY    26  13  57 N3        30.43F
LEES SUMMIT    PTCLDY    23  14  68 NW6       30.42S WCI  16
OLATHE - IXD   CLOUDY    20  14  77 NW6       30.42S WCI  12
OLATHE - OJC   CLEAR     22  15  75 N5        30.40F WCI  16
LAWRENCE       CLOUDY    18  13  80 NW5       30.43F WCI  11

$$

MOZ001>008-011>017-020>025-030>033-038>040-044>046-053-054-221100-
...NORTHERN AND CENTRAL MISSOURI...

CITY           SKY/WX    TMP DP  RH WIND       PRES   REMARKS
ST. JOSEPH     CLOUDY    18  11  74 NE3       30.43S
MOSBY          CLOUDY    23  14  68 CALM      30.43S
WARRENSBURG    CLOUDY    23  16  74 NW3       30.41F
WHITEMAN AFB   CLEAR     22  14  72 N6        30.36F WCI  14
CLINTON        CLOUDY    23  18  80 MISG      30.41F
SEDALIA        PTCLDY    24  19  81 N8        30.41S WCI  15
WARSAW         NOT AVBL
CHILLICOTHE      N/A     19  14  81 CALM      30.43R
KIRKSVILLE     CLOUDY    20  15  81 N3        30.39F

$$

MOZ041-047>049-056>058-063>065-088>090-097-221100-
...EASTERN AND SOUTHERN MISSOURI...

CITY           SKY/WX    TMP DP  RH WIND       PRES   REMARKS
ST. LOUIS INTL MOCLDY    27  19  72 N9        30.36R WCI  18
SPIRIT OF STL  MOCLDY    27  19  72 NW6       30.38R WCI  20
COLUMBIA       CLOUDY    24  16  71 N9        30.39R WCI  14
JEFFERSON CITY CLOUDY    27  16  63 NW6       30.41R WCI  20
ROLLA          CLOUDY    23  16  74 NW7       30.36R WCI  15
OSAGE BEACH    CLOUDY    26  18  71 VRB5      30.40R WCI  20
SPRINGFIELD    PTCLDY    23  17  78 N7        30.36R WCI  15
BRANSON        CLEAR     27  18  69 CALM      30.37R
JOPLIN         CLOUDY    23  18  81 N7        30.41S WCI  15
WEST PLAINS    PTCLDY    28  18  66 N7        30.34R WCI  21

$$

IAZ060-094-KSZ022-034>040-054-083-096-NEZ052-066-093-221100-
...KANSAS...SOUTHEAST NEBRASKA AND IOWA...

CITY           SKY/WX    TMP DP  RH WIND       PRES   REMARKS
TOPEKA         PTCLDY    20  13  74 CALM      30.43F
MANHATTAN      CLOUDY    17  11  77 CALM      30.43F
EMPORIA        CLOUDY    20  12  71 NW3       30.41F
CHANUTE        CLOUDY    23  15  71 NW5       30.43R WCI  17
WICHITA        CLOUDY    24  15  68 N7        30.42S WCI  16
OMAHA          CLOUDY    18  10  71 CALM      30.40F
LINCOLN        CLOUDY    13   8  81 MISG      30.42F
FALLS CITY     CLOUDY    16  11  80 W5        30.42F WCI   9
DES MOINES     CLOUDY    19  11  70 NW5       30.39F WCI  12

$$





USA.gov is the U.S. government's official web portal to all federal, state and local government web resources and services.